| time (UTC) | temp C | wind direction | speed KPH | gust KPH | rain 1hr cm | rain 24hr cm | rain mn cm | humidity % | barometer mb |
| 20260510061017 | 12 | 0.0 | 0.0 | 0.00 | 0.00 | 0.00 | 86 | 1016.4 | |
| 20260510060017 | 13 | 0.0 | 0.0 | 0.00 | 0.00 | 0.00 | 85 | 1016.3 | |
| 20260510055017 | 13 | 0.0 | 0.0 | 0.00 | 0.00 | 0.00 | 84 | 1016.3 | |
| 20260510054038 | 13 | 0.0 | 0.0 | 0.00 | 0.00 | 0.00 | 84 | 1016.3 | |
| 20260510053017 | 13 | 0.0 | 0.0 | 0.00 | 0.00 | 0.00 | 84 | 1016.3 | |
| 20260510052017 | 13 | 0.0 | 0.0 | 0.00 | 0.00 | 0.00 | 82 | 1016.2 | |
| 20260510051017 | 13 | 0.0 | 0.0 | 0.00 | 0.00 | 0.00 | 82 | 1016.3 | |
| 20260510050037 | 14 | 0.0 | 0.0 | 0.00 | 0.00 | 0.00 | 82 | 1016.1 | |
| 20260510045037 | 14 | 0.0 | 0.0 | 0.00 | 0.00 | 0.00 | 82 | 1016.1 | |
| 20260510044017 | 15 | 0.0 | 0.0 | 0.00 | 0.00 | 0.00 | 80 | 1016.0 | |
| 20260510043117 | 15 | 0.0 | 0.0 | 0.00 | 0.00 | 0.00 | 79 | 1016.0 | |
| 20260510042017 | 15 | 0.0 | 0.0 | 0.00 | 0.00 | 0.00 | 79 | 1016.2 | |
| 20260510041017 | 15 | 0.0 | 0.0 | 0.00 | 0.00 | 0.00 | 78 | 1016.1 | |
| 20260510040017 | 15 | 0.0 | 0.0 | 0.00 | 0.00 | 0.00 | 77 | 1016.1 | |
| 20260510035017 | 16 | 0.0 | 0.0 | 0.00 | 0.00 | 0.00 | 76 | 1016.1 | |
| 20260510034017 | 16 | 0.0 | 0.0 | 0.00 | 0.00 | 0.00 | 74 | 1016.1 | |
| 20260510033017 | 16 | 0.0 | 0.0 | 0.00 | 0.00 | 0.00 | 74 | 1016.2 | |
| 20260510032017 | 17 | 0.0 | 0.0 | 0.00 | 0.00 | 0.00 | 73 | 1016.3 | |
| 20260510031017 | 17 | 0.0 | 0.0 | 0.00 | 0.00 | 0.00 | 71 | 1016.3 | |
| 20260510030037 | 17 | 0.0 | 0.0 | 0.00 | 0.00 | 0.00 | 71 | 1016.3 | |
| 20260510025016 | 17 | 0.0 | 0.0 | 0.00 | 0.00 | 0.00 | 70 | 1016.4 | |
| 20260510024017 | 18 | 0.0 | 0.0 | 0.00 | 0.00 | 0.00 | 67 | 1016.3 | |
| 20260510023036 | 18 | 0.0 | 0.0 | 0.00 | 0.00 | 0.00 | 66 | 1016.4 | |
| 20260510022017 | 18 | 0.0 | 0.0 | 0.00 | 0.00 | 0.00 | 66 | 1016.5 | |
| 20260510021037 | 18 | 0.0 | 1.6 | 0.00 | 0.00 | 0.00 | 65 | 1016.6 | |
| 20260510020016 | 18 | 0.0 | 3.2 | 0.00 | 0.00 | 0.00 | 64 | 1016.9 | |
| 20260510015017 | 18 | 0.0 | 1.6 | 0.00 | 0.00 | 0.00 | 63 | 1016.8 | |
| 20260510014017 | 18 | 0.0 | 4.8 | 0.00 | 0.00 | 0.00 | 63 | 1016.9 | |
| 20260510013016 | 18 | 0.0 | 1.6 | 0.00 | 0.00 | 0.00 | 62 | 1017.0 | |
| 20260510012017 | 19 | 0.0 | 3.2 | 0.00 | 0.00 | 0.00 | 60 | 1017.1 | |
| 20260510011017 | 19 | 0.0 | 3.2 | 0.00 | 0.00 | 0.00 | 61 | 1017.0 | |
| 20260510010017 | 19 | 0.0 | 3.2 | 0.00 | 0.00 | 0.00 | 59 | 1017.3 | |
| 20260510005017 | 19 | 0.0 | 3.2 | 0.00 | 0.00 | 0.00 | 60 | 1017.3 | |
| 20260510004036 | 20 | 0.0 | 1.6 | 0.00 | 0.00 | 0.00 | 59 | 1017.4 | |
| 20260510003017 | 20 | 158 | 1.6 | 6.4 | 0.00 | 0.00 | 0.00 | 59 | 1017.5 |
| 20260510002017 | 20 | 0.0 | 3.2 | 0.00 | 0.00 | 0.00 | 57 | 1017.4 | |
| 20260510001017 | 20 | 0.0 | 4.8 | 0.00 | 0.00 | 0.00 | 57 | 1017.7 | |
| 20260510000016 | 20 | 0.0 | 3.2 | 0.00 | 0.00 | 0.00 | 58 | 1017.7 | |
| 20260509235016 | 20 | 0.0 | 1.6 | 0.00 | 0.00 | 0.00 | 59 | 1017.8 | |
| 20260509234016 | 20 | 0.0 | 4.8 | 0.00 | 0.00 | 0.00 | 58 | 1017.9 | |
| 20260509233016 | 20 | 0.0 | 6.4 | 0.00 | 0.00 | 0.00 | 58 | 1018.0 | |
| 20260509232016 | 20 | 158 | 1.6 | 8.0 | 0.00 | 0.00 | 0.00 | 58 | 1018.1 |
| 20260509231016 | 20 | 225 | 1.6 | 6.4 | 0.00 | 0.00 | 0.00 | 58 | 1018.2 |
| 20260509230017 | 20 | 0.0 | 4.8 | 0.00 | 0.00 | 0.00 | 58 | 1018.3 | |
| 20260509225016 | 20 | 158 | 1.6 | 4.8 | 0.00 | 0.00 | 0.00 | 56 | 1018.6 |
| 20260509224036 | 20 | 0.0 | 4.8 | 0.00 | 0.00 | 0.00 | 56 | 1018.6 | |
| 20260509223016 | 20 | 158 | 1.6 | 4.8 | 0.00 | 0.00 | 0.00 | 55 | 1018.6 |
| 20260509222036 | 21 | 0.0 | 4.8 | 0.00 | 0.00 | 0.00 | 55 | 1018.6 | |
| 20260509221017 | 20 | 0.0 | 3.2 | 0.00 | 0.00 | 0.00 | 55 | 1018.7 | |
| 20260509220056 | 20 | 158 | 1.6 | 6.4 | 0.00 | 0.00 | 0.00 | 54 | 1018.7 |
| 20260509215016 | 20 | 158 | 1.6 | 6.4 | 0.00 | 0.00 | 0.00 | 56 | 1018.8 |
| 20260509214016 | 20 | 225 | 1.6 | 8.0 | 0.00 | 0.00 | 0.00 | 55 | 1018.9 |
| 20260509213016 | 20 | 225 | 1.6 | 6.4 | 0.00 | 0.00 | 0.00 | 54 | 1019.0 |
| 20260509212016 | 20 | 0.0 | 3.2 | 0.00 | 0.00 | 0.00 | 54 | 1019.1 | |
| 20260509211016 | 20 | 158 | 1.6 | 4.8 | 0.00 | 0.00 | 0.00 | 55 | 1019.1 |
| 20260509210037 | 20 | 225 | 1.6 | 4.8 | 0.00 | 0.00 | 0.00 | 55 | 1019.2 |
| 20260509205016 | 20 | 158 | 1.6 | 6.4 | 0.00 | 0.00 | 0.00 | 55 | 1019.2 |
| 20260509204016 | 20 | 158 | 1.6 | 4.8 | 0.00 | 0.00 | 0.00 | 56 | 1019.3 |
| 20260509203036 | 19 | 158 | 1.6 | 4.8 | 0.00 | 0.00 | 0.00 | 57 | 1019.5 |
| 20260509202016 | 20 | 0.0 | 3.2 | 0.00 | 0.00 | 0.00 | 57 | 1019.6 | |
| 20260509201016 | 20 | 0.0 | 1.6 | 0.00 | 0.00 | 0.00 | 59 | 1019.8 | |
| 20260509200016 | 19 | 0.0 | 1.6 | 0.00 | 0.00 | 0.00 | 62 | 1020.0 | |
| 20260509195016 | 18 | 0.0 | 4.8 | 0.00 | 0.00 | 0.00 | 61 | 1020.3 | |
| 20260509194016 | 18 | 0.0 | 4.8 | 0.00 | 0.00 | 0.00 | 63 | 1020.4 | |
| 20260509193037 | 18 | 225 | 1.6 | 6.4 | 0.00 | 0.00 | 0.00 | 62 | 1020.5 |
| 20260509192017 | 18 | 158 | 1.6 | 8.0 | 0.00 | 0.00 | 0.00 | 64 | 1020.6 |
| 20260509191036 | 18 | 0.0 | 3.2 | 0.00 | 0.00 | 0.00 | 64 | 1020.6 | |
| 20260509190016 | 17 | 0.0 | 3.2 | 0.00 | 0.00 | 0.00 | 64 | 1020.7 | |
| 20260509185016 | 17 | 158 | 1.6 | 6.4 | 0.00 | 0.00 | 0.00 | 64 | 1020.8 |
| 20260509184016 | 17 | 0.0 | 4.8 | 0.00 | 0.00 | 0.00 | 62 | 1020.9 | |
| 20260509183016 | 17 | 0.0 | 3.2 | 0.00 | 0.00 | 0.00 | 63 | 1021.0 | |
| 20260509182016 | 17 | 225 | 1.6 | 6.4 | 0.00 | 0.00 | 0.00 | 64 | 1021.0 |
| 20260509181016 | 16 | 0.0 | 3.2 | 0.00 | 0.00 | 0.00 | 64 | 1021.0 | |
| 20260509180016 | 16 | 0.0 | 3.2 | 0.00 | 0.00 | 0.00 | 64 | 1021.0 | |
| 20260509175016 | 16 | 158 | 1.6 | 6.4 | 0.00 | 0.00 | 0.00 | 65 | 1021.3 |
| 20260509174016 | 16 | 158 | 1.6 | 6.4 | 0.00 | 0.00 | 0.00 | 64 | 1021.4 |
| 20260509173016 | 16 | 0.0 | 4.8 | 0.00 | 0.00 | 0.00 | 68 | 1021.2 | |
| 20260509172016 | 15 | 0.0 | 3.2 | 0.00 | 0.00 | 0.00 | 70 | 1021.3 | |
| 20260509171016 | 15 | 0.0 | 3.2 | 0.00 | 0.00 | 0.00 | 71 | 1021.4 | |
| 20260509170036 | 15 | 0.0 | 1.6 | 0.00 | 0.00 | 0.00 | 71 | 1021.6 | |
| 20260509165016 | 14 | 0.0 | 3.2 | 0.00 | 0.00 | 0.00 | 72 | 1021.6 | |
| 20260509164016 | 14 | 0.0 | 0.0 | 0.00 | 0.00 | 0.00 | 75 | 1021.7 | |
| 20260509163016 | 13 | 0.0 | 1.6 | 0.00 | 0.00 | 0.00 | 76 | 1021.8 | |
| 20260509162036 | 13 | 0.0 | 0.0 | 0.00 | 0.00 | 0.00 | 79 | 1021.9 | |
| 20260509161016 | 12 | 0.0 | 0.0 | 0.00 | 0.00 | 0.00 | 80 | 1022.2 | |
| 20260509160015 | 12 | 0.0 | 1.6 | 0.00 | 0.00 | 0.00 | 81 | 1022.2 | |
| 20260509155016 | 12 | 0.0 | 1.6 | 0.00 | 0.00 | 0.00 | 84 | 1022.3 | |
| 20260509154016 | 11 | 0.0 | 1.6 | 0.00 | 0.00 | 0.00 | 85 | 1022.3 | |
| 20260509153015 | 11 | 0.0 | 0.0 | 0.00 | 0.00 | 0.00 | 87 | 1022.4 | |
| 20260509152015 | 10 | 0.0 | 0.0 | 0.00 | 0.00 | 0.00 | 90 | 1022.5 | |
| 20260509151016 | 9 | 0.0 | 0.0 | 0.00 | 0.00 | 0.00 | 94 | 1022.6 | |
| 20260509150017 | 9 | 0.0 | 0.0 | 0.00 | 0.00 | 0.00 | 95 | 1022.5 | |
| 20260509145017 | 8 | 0.0 | 0.0 | 0.00 | 0.00 | 0.00 | 96 | 1022.8 | |
| 20260509144017 | 7 | 0.0 | 0.0 | 0.00 | 0.00 | 0.00 | 96 | 1022.8 | |
| 20260509143036 | 7 | 0.0 | 0.0 | 0.00 | 0.00 | 0.00 | 96 | 1022.9 | |
| 20260509142015 | 7 | 0.0 | 0.0 | 0.00 | 0.00 | 0.00 | 96 | 1023.0 | |
| 20260509141016 | 7 | 0.0 | 0.0 | 0.00 | 0.00 | 0.00 | 95 | 1023.0 | |
| 20260509140015 | 6 | 0.0 | 0.0 | 0.00 | 0.00 | 0.00 | 95 | 1023.1 | |
| 20260509135016 | 6 | 0.0 | 0.0 | 0.00 | 0.00 | 0.00 | 95 | 1023.1 | |
| 20260509134016 | 6 | 0.0 | 0.0 | 0.00 | 0.00 | 0.00 | 95 | 1023.0 | |
| 20260509133015 | 6 | 0.0 | 0.0 | 0.00 | 0.00 | 0.00 | 95 | 1023.0 | |
| 20260509132015 | 6 | 0.0 | 0.0 | 0.00 | 0.00 | 0.00 | 95 | 1023.0 | |
| 20260509131015 | 6 | 0.0 | 0.0 | 0.00 | 0.00 | 0.00 | 94 | 1022.9 | |
| 20260509130015 | 6 | 0.0 | 0.0 | 0.00 | 0.00 | 0.00 | 94 | 1022.9 | |
| 20260509125015 | 6 | 0.0 | 0.0 | 0.00 | 0.00 | 0.00 | 94 | 1022.8 | |
| 20260509124015 | 6 | 0.0 | 0.0 | 0.00 | 0.00 | 0.00 | 94 | 1022.8 | |
| 20260509123015 | 6 | 0.0 | 0.0 | 0.00 | 0.00 | 0.00 | 94 | 1022.9 | |
| 20260509122017 | 6 | 0.0 | 0.0 | 0.00 | 0.00 | 0.00 | 94 | 1022.8 | |
| 20260509121038 | 6 | 0.0 | 0.0 | 0.00 | 0.00 | 0.00 | 94 | 1022.8 | |
| 20260509120016 | 6 | 0.0 | 0.0 | 0.00 | 0.00 | 0.00 | 94 | 1022.9 | |
| 20260509115017 | 7 | 0.0 | 0.0 | 0.00 | 0.00 | 0.00 | 94 | 1023.0 | |
| 20260509114015 | 7 | 0.0 | 0.0 | 0.00 | 0.00 | 0.00 | 93 | 1023.0 | |
| 20260509113037 | 7 | 0.0 | 0.0 | 0.00 | 0.00 | 0.00 | 93 | 1023.0 | |
| 20260509112015 | 7 | 0.0 | 0.0 | 0.00 | 0.00 | 0.00 | 93 | 1023.0 | |
| 20260509111017 | 7 | 0.0 | 0.0 | 0.00 | 0.00 | 0.00 | 93 | 1023.1 | |
| 20260509110017 | 7 | 0.0 | 0.0 | 0.00 | 0.00 | 0.00 | 92 | 1023.0 | |
| 20260509105017 | 7 | 0.0 | 0.0 | 0.00 | 0.00 | 0.00 | 92 | 1023.1 | |
| 20260509104017 | 7 | 0.0 | 0.0 | 0.00 | 0.00 | 0.00 | 92 | 1023.2 | |
| 20260509103017 | 7 | 0.0 | 0.0 | 0.00 | 0.00 | 0.00 | 92 | 1023.3 | |
| 20260509102017 | 8 | 0.0 | 0.0 | 0.00 | 0.00 | 0.00 | 92 | 1023.4 | |
| 20260509101017 | 8 | 0.0 | 0.0 | 0.00 | 0.00 | 0.00 | 91 | 1023.3 | |
| 20260509100017 | 8 | 0.0 | 0.0 | 0.00 | 0.00 | 0.00 | 91 | 1023.4 | |
| 20260509095017 | 8 | 0.0 | 0.0 | 0.00 | 0.00 | 0.00 | 91 | 1023.4 | |
| 20260509094017 | 8 | 0.0 | 0.0 | 0.00 | 0.00 | 0.00 | 91 | 1023.5 | |
| 20260509093017 | 8 | 0.0 | 0.0 | 0.00 | 0.00 | 0.00 | 91 | 1023.5 | |
| 20260509092037 | 8 | 0.0 | 0.0 | 0.00 | 0.00 | 0.00 | 91 | 1023.6 | |
| 20260509091017 | 8 | 0.0 | 0.0 | 0.00 | 0.00 | 0.00 | 91 | 1023.6 | |
| 20260509090017 | 8 | 0.0 | 0.0 | 0.00 | 0.00 | 0.00 | 91 | 1023.6 | |
| 20260509085017 | 8 | 0.0 | 0.0 | 0.00 | 0.00 | 0.00 | 90 | 1023.6 | |
| 20260509084017 | 8 | 0.0 | 0.0 | 0.00 | 0.00 | 0.00 | 90 | 1023.6 | |
| 20260509083017 | 8 | 0.0 | 0.0 | 0.00 | 0.00 | 0.00 | 90 | 1023.6 | |
| 20260509082017 | 8 | 0.0 | 0.0 | 0.00 | 0.00 | 0.00 | 90 | 1023.6 | |
| 20260509081017 | 8 | 0.0 | 0.0 | 0.00 | 0.00 | 0.00 | 89 | 1023.4 | |
| 20260509080017 | 8 | 0.0 | 0.0 | 0.00 | 0.00 | 0.00 | 89 | 1023.4 | |
| 20260509075017 | 9 | 0.0 | 0.0 | 0.00 | 0.00 | 0.00 | 89 | 1023.4 | |
| 20260509074017 | 9 | 0.0 | 0.0 | 0.00 | 0.00 | 0.00 | 88 | 1023.4 | |
| 20260509073017 | 9 | 0.0 | 0.0 | 0.00 | 0.00 | 0.00 | 88 | 1023.3 | |
| 20260509072017 | 9 | 0.0 | 0.0 | 0.00 | 0.00 | 0.00 | 88 | 1023.3 | |
| 20260509071037 | 9 | 0.0 | 0.0 | 0.00 | 0.00 | 0.00 | 87 | 1023.2 | |
| 20260509070017 | 9 | 0.0 | 0.0 | 0.00 | 0.00 | 0.00 | 87 | 1023.2 | |
| 20260509065037 | 9 | 0.0 | 0.0 | 0.00 | 0.00 | 0.00 | 87 | 1023.1 | |
| 20260509064017 | 9 | 0.0 | 0.0 | 0.00 | 0.00 | 0.00 | 87 | 1023.1 | |
| 20260509063017 | 9 | 0.0 | 0.0 | 0.00 | 0.00 | 0.00 | 86 | 1023.1 | |
| 20260509062017 | 10 | 0.0 | 0.0 | 0.00 | 0.00 | 0.00 | 85 | 1023.0 |